Location: Newark
(20.4406°S, 50.8231°W)
Time: 11:18:02
(UTC+00:00)

ISS - Visible Passes

Search period start: 19 September 2019 00:00
Search period end: 29 September 2019 00:00
Orbit: 411 x 421 km, 51.6° (Epoch: 19 September)

Date Brightness Start Highest point End Pass type
(mag) Time Alt. Az. Time Alt. Az. Time Alt. Az.
21 Sep -2.4 08:22:02 10° NNW 08:25:11 39° NE 08:28:23 10° ESE visible
22 Sep -1.2 07:35:30 15° NNE 07:36:50 18° NE 07:39:13 10° E visible
23 Sep -3.2 08:22:57 20° WNW 08:24:53 41° SW 08:28:08 10° SSE visible
24 Sep -3.0 07:37:13 49° SE 07:37:13 49° SE 07:39:49 10° SE visible
25 Sep -1.5 08:24:13 11° SW 08:24:46 12° SW 08:26:03 10° SSW visible
26 Sep -1.2 07:38:07 14° S 07:38:07 14° S 07:38:52 10° S visible
